COSMOS 2491 DEB, 45130

Orbit data source: Space-Track

COSMOS 2491 DEB, 45130 is space debris in LEO originally from a launch on Wed, 25 Dec 2013 UTC launched from the Plesetsk Missile And Space Complex (PKMTR). Debris objects in space refer to the collection of defunct objects orbiting the Earth. Examples of debris include non-operational satellites, rocket bodies, and fragments generated from explosions, collisions, or faulty payload assembly.

Loading next visibility...
Identifier
45130, 2013-076AC
Orbit
LEO
Last TLE update
3 days ago
Origin
Manufacturer
TsNIIKhM
Mission
Spacecraft
Bus & Motor
Unknown
Mass
Unknown
Launch date (UTC)
2013-12-25 (12 years ago)
Launch vehicle
Unknown
Launch site
Plesetsk Missile And Space Complex (PKMTR)
Object type
Payload
Rocket body
Debris
Shape & HBR
Unknown
Radar Cross Section
Small (<0.1 m²)

Expand to show TLE details & history

TLE from 3 days ago
0 COSMOS 2491 DEB
1 45130U 13076AC  25189.13039298  .00003485  00000-0  16295-1 0  9994
2 45130  82.4431 329.3020 0189295 195.0601 164.4811 12.70018469250989
Epoch: 2025-07-08T03:07Z
TLE epoch observation values (Epoch: 2025-07-08T03:07:45.953Z)
Latitude
-0.00007°
Longitude
-3.96928°
Altitude
1,526.359 km
Speed
7.037 km/s
True Right ascension
21h 57m 12s
True Declination
0° 00' 00"
Sunlit
Object was in full shadow at epoch
Visualization orbit readout
Latitude
-45.91663°
Longitude
-13.71821°
Altitude
1,482.641 km
Speed
7.083 km/s
Apparent Right ascension
23h 05m 21s
Apparent Declination
-46° 44' 55"
Sunlit
Object is in full shadow
Visualization observer readout
Local Sidereal Time
13:06:22
Azimuth
117.387° SE
Elevation
-67.12°
Doppler factor
1
Orbital elements
Apogee altitude
1,526.02 km
Perigee altitude
1,232.336 km
Semi-major axis
7,757.315 km
Eccentricity
0.01893
Inclination
82.4431°
RAAN
329.302°
Arg. of periapsis
195.0601°
True anomaly
Unknown
Mean anomaly
164.4811°
Eccentric anomaly
Unknown
Mean motion
3.1767 °/min
Orbital period
113.33 mins
BSTAR
0.016295
Loading maneuver chart data...
Loading SW <> Apogee altitude chart data...
Loading historical data...
Loading historical data...
Loading historical data...
Loading historical data...
Loading historical data...
Loading historical data...
Loading historical data...

COSMOS 2491 DEB Visibility forecast

Observer location: undefined°, undefined°

Span
Click to sort rows by Start time (UTC) header in descending order
Start Az.
Max El. time (UTC)
Max El. Az.
Max El.
End time (UTC)
End Az.
15 mins2025-07-11 08:44:04.592Z149.398° SSE2025-07-11 08:52:04.592Z84.245° E31.689°2025-07-11 08:59:04.592Z25.068° NE
15 mins2025-07-11 10:39:04.592Z216.415° SW2025-07-11 10:46:04.592Z285.127° WNW36.431°2025-07-11 10:54:04.592Z356.485° N
14 mins2025-07-11 20:37:04.592Z357.78° N2025-07-11 20:44:04.592Z87.909° E43.171°2025-07-11 20:51:04.592Z163.403° S
9 mins2025-07-11 22:33:04.592Z317.032° NNW2025-07-11 22:37:04.592Z282.36° WNW19.2°2025-07-11 22:42:04.592Z238.476° WSW
|